Overview Statistics Trail Chart Weather Telemetry Raw packets
 

This is the latest recevied weather packets stored in our database for station/object KI4NG. If no packets are shown the sender has not sent any weather packets the latest 10 day(s).

<< 1 2 3 4 5 6 >>
Time Temp. Humidity Pressure Rain* Wind** Luminosity Snow
1788620373 27.78° C 82% 1017.5 hPa 0 mm - 331 W/m² -
1788620073 27.78° C 83% 1017.8 hPa 0 mm - 180 W/m² -
1788619767 27.78° C 82% 1017.8 hPa 0 mm - 375 W/m² -
1788619463 27.78° C 82% 1017.8 hPa 0 mm - 233 W/m² -
1788619161 27.78° C 84% 1017.5 hPa 0 mm - 444 W/m² -
1788618855 27.22° C 84% 1017.6 hPa 0 mm - 255 W/m² -
1788618555 27.22° C 84% 1017.5 hPa 0 mm - 260 W/m² -
1788618254 26.67° C 84% 1017.7 hPa 0 mm - 510 W/m² -
1788617950 26.11° C 87% 1017.4 hPa 0 mm - 439 W/m² -
1788617644 26.11° C 87% 1017.5 hPa 0 mm - 198 W/m² -
1788617341 25.56° C 88% 1017.6 hPa 0 mm - 237 W/m² -
1788617035 25.56° C 89% 1017.6 hPa 0 mm - 237 W/m² -
1788616734 25.56° C 89% 1017.7 hPa 0 mm - 197 W/m² -
1788616430 25.56° C 88% 1017.8 hPa 0 mm - 231 W/m² -
1788616125 25.56° C 89% 1017.7 hPa 0 mm - 214 W/m² -
1788615824 24.44° C 91% 1017.7 hPa 0 mm - 303 W/m² -
1788615518 23.89° C 94% 1017.6 hPa 0 mm - 201 W/m² -
1788615214 23.89° C 93% 1017.7 hPa 0 mm - 172 W/m² -
1788614913 23.89° C 94% 1018 hPa 0 mm - 161 W/m² -
1788614609 23.89° C 94% 1018.1 hPa 0 mm - 153 W/m² -
1788614303 23.33° C 95% 1018 hPa 0 mm - 142 W/m² -
1788613999 22.78° C 96% 1018 hPa 0 mm - 129 W/m² -
1788613694 22.78° C 96% 1017.8 hPa 0 mm - 113 W/m² -
1788613392 22.78° C 96% 1018 hPa 0 mm - 103 W/m² -
1788613088 22.78° C 95% 1018.2 hPa 0 mm - 92 W/m² -

* Rain latest hour (hover to see other rain measurements)
** Current wind speed in m/s (hover to see current wind gust speed)